Presure
192 191 199 195 196 214 219 245 223 245 254 289 354 340 333 325 322 323 322 329 330 332 332 330 320 319 310 310 317 321 327 331 339 260 241 230 227 229 226 221 207 206 206
199 194 203 197 212 215 194 232 247 252 275 357 349 334 325 319 319 319 321 319 321 325 325 331 329 328 327 331 338 340 345 341 338 346 277 326 273 245 240 229 223 215 217
201 207 210 216 213 222 229 240 246 265 304 355 264 324 319 316 313 317 322 326 326 322 320 322 327 332 337 335 331 330 330 333 339 299 349 341 325 317 305 254 240 227 218
205 205 215 202 221 235 277 254 258 362 313 337 325 321 317 318 320 325 330 333 356 353 342 345 349 355 365 371 353 339 335 337 338 109 342 339 335 331 328 320 318 281 240
213 216 225 217 236 275 256 274 288 355 338 330 323 320 321 327 330 362 336 338 352 387 379 363 350 347 349 356 363 367 374 382 387 390 380 385 283 339 339 273 338 330 325
221 222 235 237 245 287 275 282 310 343 333 324 323 330 332 335 332 341 399 372 324 496 477 464 456 445 441 427 423 424 435 333 414 369 419 300 441 480 219 300 503 155 351
223 238 239 247 300 282 290 357 346 335 329 328 333 341 345 334 362 363 381 465 475 425 406 397 393 391 390 389 394 384 382 383 383 388 388 386 390 396 436 460 232 491 526
233 234 242 308 287 306 355 347 338 334 331 336 343 331 340 385 324 483 453 425 406 372 368 364 359 353 352 353 353 354 355 358 361 367 376 372 377 380 386 419 450 485 449
247 230 279 297 304 333 348 341 335 336 340 325 331 346 377 349 473 438 405 394 373 352 345 340 340 346 345 349 347 337 335 337 341 343 344 348 356 367 362 388 413 460 386
246 235 308 340 316 346 270 335 340 346 323 328 350 369 370 475 404 389 351 347 340 335 333 335 337 339 346 338 342 334 345 350 349 337 349 342 345 344 366 364 381 411 478
255 337 347 309 297 265 338 345 346 318 326 354 345 379 472 389 365 347 341 338 333 326 333 336 339 345 346 345 340 342 349 364 369 353 334 344 350 343 346 360 369 379 411
337 332 309 300 261 344 349 343 324 332 354 316 358 458 393 364 342 338 334 309 331 336 344 353 356 356 358 355 354 373 360 356 349 349 333 339 349 338 335 349 369 371 396
307 299 292 258 347 346 344 340 334 343 319 364 451 397 373 343 337 321 310 323 359 370 281 391 391 396 383 366 369 365 356 357 362 369 365 352 349 351 339 349 370 368 390
282 362 270 348 343 344 344 324 322 348 305 455 448 371 351 343 325 309 304 310 308 309 352 318 322 393 393 365 369 349 350 347 349 362 378 379 378 356 346 358 366 369 385
338 348 350 344 344 345 318 323 367 295 446 433 390 371 337 329 308 295 301 281 297 305 291 312 311 305 310 331 365 363 362 367 384 395 442 437 383 382 369 361 368 365 392
349 353 346 344 345 323 326 343 301 406 442 428 372 340 333 323 291 302 278 295 283 268 296 301 292 296 299 310 316 311 393 399 390 393 437 463 413 383 374 375 377 382 396
353 344 342 344 325 330 330 304 354 442 421 401 363 336 327 314 303 280 293 267 297 285 297 293 295 298 305 307 304 304 399 397 395 392 408 454 440 423 405 390 395 407 467
336 342 348 336 333 328 318 355 462 420 412 382 364 329 320 293 298 284 282 280 278 276 290 263 276 282 286 292 301 312 304 426 417 421 432 444 453 449 444 436 432 465 457
337 343 343 333 331 324 369 462 434 407 402 368 357 325 310 302 287 294 279 279 267 285 276 284 277 271 276 281 288 297 301 317 367 383 394 395 417 464 465 458 445 453 452
348 349 328 334 321 451 459 446 408 396 394 361 344 324 306 298 284 285 283 283 279 276 288 263 279 281 282 279 281 286 298 294 305 314 353 361 388 408 441 457 486 433 438
348 325 351 310 471 455 442 427 390 386 376 345 337 321 303 292 285 288 277 277 274 272 284 279 249 280 278 273 277 284 287 290 301 294 293 316 325 351 384 397 409 465 447
340 337 374 462 450 431 427 401 377 380 366 348 336 317 304 291 288 284 275 273 275 265 256 282 273 255 278 283 277 279 268 282 280 289 299 280 307 303 318 341 386 417 424
332 460 452 443 429 422 406 382 367 381 356 339 334 316 304 292 289 277 279 274 274 278 268 258 276 266 268 267 275 269 271 273 272 278 280 285 285 280 299 301 313 341 398
450 444 437 423 406 418 383 367 358 400 355 335 331 315 303 296 290 281 278 281 272 273 269 280 271 267 268 276 269 271 279 276 277 271 271 268 271 281 287 288 285 301 311
438 432 422 411 415 383 371 354 355 398 357 334 334 317 308 300 292 284 280 279 280 270 269 264 263 278 271 269 267 276 279 278 277 289 282 289 281 275 269 269 278 277 292
432 420 409 405 399 363 358 351 341 403 357 335 335 321 314 303 297 291 286 278 276 275 278 270 266 274 274 278 271 270 270 267 268 275 274 276 284 276 286 282 278 283 282
Wind_Speed
83 84 94 89 92 111 116 119 106 114 112 104 78 71 67 64 62 61 59 61 63 67 74 82 87 91 95 100 103 106 107 108 107 145 160 145 135 145 146 140 118 128 130
92 91 100 93 110 111 87 113 116 112 110 79 71 68 64 64 64 64 65 66 67 69 71 76 78 83 89 95 99 101 103 106 109 104 136 112 148 169 153 148 150 137 143
99 103 105 112 109 117 119 114 111 112 98 70 86 66 66 67 68 70 71 72 71 71 72 74 78 84 86 90 95 96 98 99 102 89 99 108 114 117 121 163 158 150 144
105 103 109 96 118 128 119 115 111 79 88 67 68 68 69 71 73 76 75 75 77 76 77 79 80 84 87 90 92 92 94 96 99 31 103 102 108 111 116 119 121 144 165
110 112 118 109 130 126 117 114 106 69 68 68 69 72 74 75 77 78 74 75 77 74 73 74 74 76 77 79 82 84 86 88 89 92 95 94 85 107 108 92 117 118 115
116 118 128 124 126 118 116 112 98 68 69 70 73 75 74 75 75 76 73 71 69 39 33 30 28 27 27 28 32 35 32 38 44 50 37 30 31 36 58 42 56 54 115
118 131 125 132 122 118 115 74 71 69 71 73 76 77 74 72 73 70 64 41 29 24 25 25 24 27 30 32 33 36 38 41 40 41 39 40 37 41 35 41 41 59 59
128 122 128 121 119 112 79 73 70 71 73 74 75 71 71 69 67 42 34 21 18 21 21 22 23 28 31 32 33 34 35 35 35 36 32 34 35 39 43 38 41 49 49
137 111 125 117 112 92 74 71 71 72 72 68 70 70 66 65 34 21 16 15 14 19 24 28 30 32 35 39 41 42 44 44 44 43 40 39 36 39 46 42 34 44 45
131 112 115 97 98 75 91 70 71 71 65 67 68 65 62 28 18 13 16 18 21 21 25 26 29 32 33 34 34 37 41 43 53 51 48 45 44 44 44 45 39 34 45
127 104 91 96 93 91 68 70 68 62 64 66 61 57 29 15 16 19 19 18 17 20 26 29 32 35 37 38 37 41 46 48 40 48 51 48 47 45 44 47 44 41 39
100 90 93 91 87 67 68 66 62 62 63 58 58 27 12 16 20 17 17 23 20 24 28 31 34 37 38 38 39 31 25 28 39 46 50 50 49 49 51 51 48 44 42
94 92 90 84 67 68 65 61 61 61 57 57 27 13 14 18 15 13 11 14 19 28 35 27 25 23 22 17 20 18 19 22 26 35 45 51 51 56 53 53 49 44 42
90 65 84 67 66 65 62 59 58 56 57 24 18 15 15 13 8 8 11 10 13 16 24 15 19 23 14 15 16 19 23 28 32 38 37 37 50 54 55 53 51 42 43
76 68 66 65 64 61 59 58 59 54 28 20 13 15 14 7 9 16 6 27 11 11 16 20 19 16 19 23 16 20 28 34 35 31 32 36 42 46 53 50 48 43 40
67 64 64 63 60 57 57 60 53 42 19 14 15 16 12 9 19 10 26 4 15 23 11 14 12 18 21 25 31 28 13 12 15 22 34 16 42 48 49 49 45 40 39
64 63 64 61 58 57 57 51 49 25 15 19 18 19 13 14 12 20 4 23 6 10 13 14 21 25 29 30 28 27 17 12 13 23 27 2 18 36 47 48 44 42 34
65 67 63 60 58 57 54 48 20 19 14 20 20 20 18 19 15 17 17 10 13 13 7 19 13 13 19 25 32 33 27 23 25 28 24 16 1 8 17 22 26 25 30
66 66 63 58 58 55 46 22 16 16 16 22 25 24 23 20 20 11 16 11 20 6 9 6 8 11 15 20 25 31 31 35 47 48 45 42 36 9 2 9 10 16 23
68 63 58 60 56 32 24 17 15 15 18 26 31 28 27 25 22 19 13 12 15 14 5 13 8 11 14 17 22 25 30 27 31 31 47 49 46 37 28 11 8 7 13
63 58 63 54 28 23 18 13 15 17 24 28 34 32 31 29 24 20 18 17 19 16 9 7 13 9 10 12 16 21 23 24 28 23 20 34 44 45 44 34 29 7 8
62 60 51 28 23 18 14 14 15 20 27 30 36 36 35 32 30 26 24 22 24 17 14 11 14 14 15 12 8 13 8 20 20 21 22 9 32 25 36 40 39 28 25
58 34 28 23 18 14 11 15 15 22 30 32 37 40 38 36 35 30 30 28 27 26 20 17 17 16 14 13 13 12 12 11 13 18 20 19 11 8 22 20 27 35 32
33 28 23 18 13 10 10 14 14 18 33 34 38 42 40 40 38 36 32 34 30 27 25 25 22 20 19 16 17 16 14 13 12 8 9 7 6 13 14 9 6 16 22
28 23 18 13 10 9 9 13 13 19 33 36 38 43 46 44 42 40 38 36 35 32 30 24 23 25 26 23 20 21 21 19 19 20 13 14 9 7 7 7 3 5 3
21 18 14 10 8 8 9 12 14 15 31 37 36 43 45 44 46 43 43 39 36 35 36 33 29 32 31 31 30 27 25 23 23 24 20 19 19 15 18 15 13 11 14
Wind_Direction
322 321 322 318 318 323 324 321 319 320 317 314 301 299 297 296 295 292 288 282 274 268 263 260 257 255 252 252 253 253 254 254 251 243 246 251 252 250 249 250 253 254 256
323 320 321 316 323 322 312 320 321 318 316 303 299 299 300 299 297 295 291 286 282 277 273 269 265 263 261 259 257 256 255 255 255 251 246 246 248 251 250 249 249 251 249
320 320 321 321 320 322 322 320 319 318 315 301 308 305 303 300 298 294 292 289 284 279 274 271 268 265 262 260 259 258 258 256 257 257 252 252 251 248 248 249 248 247 247
318 318 321 313 321 323 317 320 319 309 313 307 307 305 302 299 298 296 291 287 284 281 277 273 269 267 264 262 260 259 257 256 255 243 254 249 249 249 249 250 249 246 246
319 319 321 317 323 318 320 319 318 309 311 309 308 304 302 301 299 295 292 290 286 284 281 276 272 269 266 263 261 260 259 259 258 257 256 252 246 248 248 247 247 248 245
320 320 321 320 321 318 318 319 316 313 312 310 306 303 303 302 299 296 295 292 288 287 279 274 274 271 266 263 262 259 256 244 257 256 257 245 253 255 255 249 246 250 244
318 320 320 321 318 319 319 314 315 315 312 308 306 305 305 303 300 299 297 294 285 272 266 262 266 268 268 268 266 262 258 256 255 258 258 258 258 258 253 254 253 243 241
319 321 322 318 318 318 316 316 315 313 310 309 308 308 307 306 303 301 295 284 260 261 262 265 269 272 273 270 269 268 267 265 264 263 261 257 262 257 256 261 255 252 245
317 318 319 317 317 317 317 315 314 311 311 311 310 310 310 309 304 296 284 263 259 282 288 286 282 275 276 276 273 269 266 260 257 252 251 250 255 257 256 260 263 255 243
316 318 316 316 317 316 317 315 311 313 314 312 312 312 312 307 295 299 296 294 298 301 295 290 289 283 282 283 273 271 271 269 258 257 252 248 246 247 256 252 257 264 249
316 315 314 317 317 317 315 312 314 316 314 314 314 312 303 287 288 294 309 320 319 307 301 300 298 291 286 283 283 282 278 273 261 250 252 251 249 242 250 257 252 250 255
314 315 316 317 315 315 313 316 316 316 317 315 315 301 278 269 290 310 323 307 323 314 305 302 300 294 287 283 286 281 266 259 252 246 249 249 246 237 242 249 255 245 248
315 315 316 314 315 314 316 316 316 318 315 315 305 271 258 279 300 309 310 351 348 341 304 324 329 320 289 290 285 273 280 278 274 260 249 240 239 240 238 246 250 243 248
315 311 314 315 315 316 316 317 316 319 315 300 291 259 250 280 288 282 303 7 1 358 32 14 17 339 306 325 298 319 307 302 299 294 282 254 238 236 238 243 247 240 245
314 315 314 315 316 315 316 316 318 316 314 295 235 236 257 255 251 279 288 289 332 4 337 31 24 10 15 22 328 295 292 291 290 290 310 250 236 233 236 237 240 232 244
313 312 314 316 315 315 316 318 315 316 300 252 238 239 243 221 268 244 284 349 297 302 359 24 2 11 5 10 18 8 313 353 355 353 345 227 223 227 233 238 240 237 243
312 315 316 314 314 315 316 315 315 298 277 229 226 225 209 203 226 273 251 295 27 334 30 28 28 22 23 20 12 7 4 353 359 11 7 234 216 228 232 238 245 250 223
316 316 314 313 314 315 314 315 294 281 255 215 211 215 201 239 215 262 261 277 292 310 16 304 321 7 14 20 21 23 15 37 49 47 34 42 133 233 229 232 235 223 217
316 315 314 314 314 314 313 297 275 266 226 209 201 206 200 207 235 201 255 257 283 288 306 359 351 344 0 6 17 24 22 35 49 55 55 54 51 58 189 209 207 205 206
314 314 313 313 313 310 301 282 257 242 208 205 201 202 202 205 238 231 226 240 261 280 303 322 354 358 8 8 11 16 25 28 39 40 53 54 52 53 54 64 206 188 201
314 314 313 312 312 305 288 252 243 221 200 205 202 202 204 213 225 218 234 246 263 279 303 312 306 332 341 351 10 17 16 21 36 40 30 52 53 49 52 56 57 101 177
315 314 314 315 310 297 267 223 231 211 198 202 201 204 204 216 218 225 239 248 255 276 288 303 307 309 329 350 4 8 337 20 20 26 37 26 54 54 52 47 50 59 61
316 320 318 314 304 286 237 217 224 210 199 201 201 206 207 215 218 236 232 243 254 258 274 286 293 300 301 318 326 335 344 355 0 11 16 27 36 78 57 57 57 49 55
324 322 319 311 294 255 221 217 227 215 200 203 201 208 211 214 219 229 235 235 250 261 268 277 277 288 293 302 305 312 318 321 330 339 350 359 359 12 12 23 96 75 67
325 323 318 304 283 215 223 220 235 214 203 205 205 210 214 216 219 226 234 238 241 254 262 270 278 286 281 288 295 297 302 306 310 320 322 328 297 268 245 226 225 203 118
326 324 317 295 229 218 228 226 234 222 206 208 209 213 215 220 222 226 230 239 245 251 254 262 272 273 279 280 284 290 293 293 297 301 303 298 301 278 299 281 256 241 216